Flag for U.S.A. Weather past 2 weeks in Bowling Green, Kentucky, U.S.A.

48 °F

Light rain. Low clouds.

Feels Like: 43 °F
Forecast: 52 / 60 °F
Wind: 12 mph from East

Location: Glasgow Municipal Airport

Current Time: Nov 29, 2015 at 9:16:29 PM

Latest Report: Nov 29, 2015 at 8:55 PM

Visibility: 10 mi

Pressure: 30.08 "Hg

Humidity: 100%

Dew point: 48 °F

Location of Bowling GreenLocation

Historic Weather in Bowling Green — Graph


Bowling Green temperature yesterday

Maximum temperature yesterday: 62 °F (at 8:55 AM)
Minimum temperature yesterday: 56 °F (at 11:55 PM)
Average temperature yesterday: 60 °F

Past Weeks' High & Low Weather Summary

High70 °F (Nov 26, 2:35 PM)100% (Nov 15, 1:35 AM)30.54 "Hg (Nov 15, 1:35 AM)
Low20 °F (Nov 23, 2:55 AM)25% (Nov 20, 2:55 PM)29.67 "Hg (Nov 18, 1:55 PM)
Average49 °F70%30.23 "Hg
* Reported Nov 14 8:15 PM — Nov 29 8:15 PM, Bowling Green, Weather by CustomWeather, © 2015

Note: Actual official high and low records may vary slightly from our data, if they occured in-between our weather recording intervals... More about our weather records


Bowling Green weather history for previous 24 hours

Time TempWeatherWind HumidityBarometerVisibility
8:15 PM
Sun, Nov 29
48 °FLight rain. Low clouds.12 mph100%30.11 "Hg10 mi
6:15 PM47 °FLight rain. Mostly cloudy.8 mph100%30.12 "Hg10 mi
5:35 PM47 °FRain. Low clouds.9 mph100%30.10 "Hg10 mi
4:55 PM47 °FLight rain. Low clouds.10 mph100%30.08 "Hg10 mi
4:35 PM47 °FLight rain. Low clouds.13 mph100%30.07 "Hg10 mi
4:15 PM47 °FRain. Mostly cloudy.10 mph100%30.08 "Hg7 mi
3:55 PM47 °FRain. Mostly cloudy.8 mph100%30.11 "Hg7 mi
3:35 PM47 °FRain. Low clouds.6 mph100%30.11 "Hg10 mi
3:15 PM47 °FLight rain. Low clouds.9 mph100%30.10 "Hg10 mi
2:55 PM47 °FLight rain. Low clouds.9 mph100%30.10 "Hg7 mi
2:35 PM47 °FLight rain. Low clouds.13 mph100%30.09 "Hg7 mi
2:15 PM47 °FLight rain. Low clouds.13 mph100%30.09 "Hg10 mi
1:55 PM47 °FRain. Low clouds.12 mph100%30.09 "Hg10 mi
1:35 PM47 °FLight rain. Low clouds.9 mph100%30.09 "Hg10 mi
1:15 PM48 °FLight rain. Low clouds.12 mph100%30.11 "Hg10 mi
12:55 PM48 °FDrizzle. Low clouds.14 mph100%30.10 "Hg10 mi
12:35 PM48 °FLow clouds.8 mph100%30.12 "Hg10 mi
12:15 PM48 °FLight rain. Low clouds.12 mph100%30.12 "Hg10 mi
11:55 AM48 °FDrizzle. Low clouds.13 mph100%30.13 "Hg10 mi
11:35 AM49 °FLow clouds.10 mph100%30.14 "Hg10 mi
11:15 AM49 °FLow clouds.8 mph100%30.15 "Hg10 mi
10:55 AM49 °FRain. Mostly cloudy.9 mph100%30.14 "Hg10 mi
10:35 AM48 °FLight rain. Low clouds.12 mph100%30.17 "Hg7 mi
10:15 AM49 °FRain. Mostly cloudy.7 mph100%30.18 "Hg7 mi
9:55 AM49 °FDrizzle. More clouds than sun.6 mph100%30.19 "Hg5 mi
9:35 AM49 °FDrizzle. Mostly cloudy.9 mph100%30.19 "Hg7 mi
9:15 AM49 °FRain. Mostly cloudy.9 mph100%30.18 "Hg5 mi
8:55 AM49 °FLight rain. Low clouds.7 mph100%30.19 "Hg4 mi
8:35 AM50 °FDrizzle. Mostly cloudy.6 mph100%30.19 "Hg4 mi
8:15 AM50 °FDrizzle. Mostly cloudy.3 mph100%30.18 "Hg4 mi
7:55 AM49 °FRain. Mostly cloudy.7 mph100%30.17 "Hg7 mi
7:35 AM49 °FOvercast.3 mph100%30.18 "Hg10 mi
7:15 AM49 °FFog.7 mph100%30.16 "Hg5 mi
6:55 AM48 °FLight rain. Mostly cloudy.8 mph100%30.18 "Hg5 mi
6:35 AM48 °FRain. Low clouds.6 mph100%30.18 "Hg5 mi
6:15 AM49 °FLow clouds.5 mph100%30.18 "Hg10 mi
5:55 AM49 °FLow clouds.8 mph100%30.17 "Hg10 mi
5:35 AM50 °FDrizzle. Low clouds.6 mph100%30.17 "Hg10 mi
5:15 AM50 °FLight rain. Low clouds.6 mph100%30.17 "Hg4 mi
4:55 AM50 °FDrizzle. Low clouds.3 mph100%30.17 "Hg7 mi
4:35 AM50 °FLight rain. Overcast.3 mph100%30.17 "Hg5 mi
4:15 AM50 °FDrizzle. Mostly cloudy.No wind100%30.18 "Hg5 mi
3:35 AM53 °FHeavy rain. Mostly cloudy.3 mph100%30.18 "Hg3 mi
3:15 AM53 °FLight rain. Mostly cloudy.No wind100%30.18 "Hg3 mi
2:55 AM54 °FLight rain. Low clouds.5 mph100%30.18 "Hg10 mi
2:35 AM54 °FLight rain. Mostly cloudy.3 mph100%30.18 "Hg7 mi
2:15 AM54 °FLight rain. Low clouds.No wind100%30.17 "Hg10 mi
1:55 AM55 °FLight rain. Mostly cloudy.No wind100%30.18 "Hg10 mi
12:55 AM55 °FDrizzle. Low clouds.3 mph100%30.17 "Hg10 mi
12:35 AM55 °FDrizzle. Low clouds.No wind100%30.17 "Hg10 mi
11:55 PM
Sat, Nov 28
56 °FDrizzle. Mostly cloudy.3 mph100%30.18 "Hg10 mi
11:15 PM57 °FHeavy rain. Mostly cloudy.No wind100%30.18 "Hg5 mi
10:55 PM59 °FDrizzle. Low clouds.3 mph100%30.18 "Hg4 mi
10:15 PM59 °FHeavy rain. Mostly cloudy.5 mph100%30.18 "Hg5 mi
9:55 PM59 °FLight rain. Overcast.5 mph100%30.18 "Hg7 mi
9:15 PM59 °FLight rain. Overcast.5 mph100%30.19 "Hg5 mi
Weather by CustomWeather, © 2015

See weather overviewHow to use our weather pages